Wind_Speed
36 38 39 39 40 39 38 39 40 40 39 38 38 39 39 39 39 38 39 39 40 41 41 41 42 42 43 43 43 43 43 43 44 44 45 47 48 48 49 50 51 51 50
39 39 40 41 41 41 40 41 42 43 43 43 43 43 44 44 44 44 44 44 43 43 43 43 43 44 45 45 45 45 44 43 44 45 46 47 48 49 50 51 53 53 52
38 39 41 41 42 41 41 42 44 45 47 47 48 49 49 49 48 48 48 48 47 46 45 45 45 46 47 47 47 46 45 45 46 46 47 48 49 50 51 52 53 54 54
37 38 39 40 41 41 42 43 44 46 49 50 52 53 53 53 52 51 50 51 50 50 49 48 48 49 49 49 49 48 47 47 47 47 48 48 49 50 51 53 54 55 54
35 36 37 38 40 41 42 44 46 47 49 51 54 55 55 55 54 52 52 53 53 53 53 51 51 51 51 51 51 51 50 50 48 47 47 48 48 49 51 53 54 55 54
34 35 36 38 41 42 43 45 47 49 50 52 55 56 56 57 55 54 56 57 57 57 56 53 53 53 53 52 53 52 52 50 48 47 46 47 47 48 49 51 53 53 52
35 36 37 39 41 42 43 44 47 48 50 53 55 57 58 58 57 57 59 60 59 59 58 56 55 54 53 53 53 53 52 49 47 46 46 46 46 46 47 48 50 51 51
40 42 43 45 47 48 49 51 52 54 54 56 58 61 61 60 58 61 62 62 61 61 59 58 56 55 54 53 53 53 51 48 46 45 45 45 45 45 44 45 47 48 49
46 49 50 52 53 54 55 56 58 59 60 60 61 64 66 65 63 61 62 63 62 61 59 59 58 57 55 54 53 53 52 49 47 45 44 44 43 43 42 43 44 45 47
51 53 54 55 56 58 59 60 62 63 64 64 64 66 68 70 71 69 64 63 64 63 61 60 59 57 55 54 55 54 53 50 46 44 43 43 43 42 41 41 42 44 46
53 55 57 59 60 62 64 65 67 68 69 70 71 71 71 72 72 74 72 66 64 63 61 61 59 57 55 54 54 53 53 50 45 43 42 42 42 41 40 40 42 44 45
57 59 61 63 64 65 67 68 69 70 71 72 72 72 71 70 68 68 69 67 64 60 59 60 60 58 56 54 53 53 53 50 45 43 43 43 42 41 40 40 41 43 45
59 61 62 64 65 66 67 68 68 69 69 70 70 70 69 68 67 65 65 65 64 63 61 61 59 59 58 56 55 54 54 52 47 44 44 45 44 42 40 39 40 43 45
61 63 65 67 69 70 71 72 73 73 74 74 74 74 74 74 73 72 70 69 68 67 65 64 61 60 60 60 58 57 56 54 51 47 46 46 46 44 42 40 41 43 45
65 67 70 72 74 76 77 78 79 79 80 80 80 80 79 78 78 77 76 75 75 74 72 69 67 64 62 62 60 60 58 55 53 51 49 48 46 45 44 42 42 43 46
71 74 76 78 80 82 83 83 84 84 84 84 84 83 82 81 80 79 79 78 78 79 79 74 71 69 66 65 63 61 59 57 55 53 51 49 47 46 46 46 45 46 48
78 80 82 84 86 87 88 88 88 88 88 86 85 84 84 83 82 81 80 79 78 77 79 76 71 68 65 63 60 59 58 57 55 53 51 50 49 47 47 47 48 48 50
85 88 90 91 91 91 91 91 90 89 88 86 85 84 83 81 80 79 78 77 76 75 75 75 70 65 62 59 58 57 56 55 54 53 52 51 50 49 47 47 49 50 52
93 95 96 96 95 93 92 91 90 88 86 84 82 81 80 79 78 76 75 73 73 72 72 72 69 64 60 56 56 55 53 53 53 53 52 52 51 49 47 47 48 51 52
98 98 97 95 93 91 89 87 86 84 82 79 78 78 77 77 76 75 74 72 71 71 69 69 67 63 59 56 56 54 53 51 51 52 53 53 52 49 47 46 48 50 51
100 98 95 91 88 85 82 81 79 78 76 75 74 73 73 73 73 74 73 72 71 70 68 67 65 62 58 56 55 54 53 51 51 52 53 54 52 50 49 47 47 50 52
94 91 87 83 79 77 75 75 74 73 73 73 73 72 72 72 73 73 73 72 71 71 69 68 65 62 58 56 55 55 54 52 51 51 53 51 50 49 48 46 48 50 52
82 78 75 73 72 71 72 72 73 74 74 75 76 75 74 74 76 77 76 74 73 73 73 72 69 65 62 58 58 56 54 53 51 51 52 50 49 49 50 49 49 49 51
71 69 69 69 69 71 73 75 77 79 80 81 82 82 81 79 80 81 80 78 75 73 72 73 72 68 65 61 58 56 54 53 51 50 49 47 46 47 46 45 46 48 49
67 67 69 71 74 76 80 82 84 84 84 84 84 83 82 80 78 79 78 76 73 70 68 68 67 65 62 58 56 54 52 50 49 47 45 45 44 43 43 44 46 46 47
70 72 75 78 81 84 86 87 88 88 86 84 80 76 74 72 69 68 68 67 65 62 60 58 56 55 53 51 49 48 46 45 44 44 43 43 42 41 40 40 41 42 43
Wind_Direction
275 278 281 284 285 284 282 279 277 277 280 283 286 289 291 293 295 297 298 299 300 301 301 301 302 302 303 302 302 303 303 304 304 304 304 300 296 291 287 285 284 282 279
276 277 279 281 282 282 281 278 277 277 278 280 283 285 287 290 292 295 297 297 296 296 297 297 297 297 298 298 298 299 299 300 302 301 301 299 296 292 288 284 283 281 279
274 275 276 278 279 280 281 281 280 280 280 281 282 283 285 287 290 292 295 296 295 295 294 294 294 294 295 295 296 296 296 297 300 301 299 297 295 293 289 285 281 279 277
276 277 278 280 281 282 282 283 283 283 282 282 282 283 285 286 288 291 293 293 294 294 293 293 293 294 294 293 293 293 293 295 298 298 297 296 294 292 290 287 284 280 276
282 283 284 284 284 284 284 284 284 284 283 282 282 283 284 285 287 289 290 291 291 292 292 293 293 293 293 292 291 291 292 295 296 296 295 294 293 291 290 288 286 283 277
287 287 288 288 288 289 288 288 287 286 285 284 284 285 285 286 288 289 289 289 291 291 292 293 293 293 292 292 292 292 292 294 296 295 294 293 291 290 290 289 288 285 279
294 295 296 296 296 296 295 294 292 291 289 287 287 287 287 288 289 289 289 290 291 291 292 293 292 292 292 292 291 292 292 294 295 295 294 292 291 290 290 289 288 285 278
298 299 299 299 299 298 297 295 293 291 289 287 287 287 286 286 287 287 288 288 289 290 291 291 290 290 291 291 291 292 293 294 295 294 292 291 290 290 291 289 288 283 277
301 301 300 299 298 297 295 293 291 289 288 286 286 286 287 287 285 286 287 288 288 289 289 290 290 290 291 292 293 293 293 293 294 294 292 290 289 290 290 288 286 282 277
301 300 299 297 296 294 293 292 290 289 289 288 288 288 288 289 289 288 287 287 288 288 288 288 289 290 291 293 294 293 292 293 294 293 291 290 290 290 289 287 285 281 277
297 296 295 294 293 292 291 290 290 290 290 289 289 289 289 289 289 289 289 287 286 288 289 289 290 291 293 294 294 293 291 292 292 291 290 289 290 289 288 286 283 280 277
294 293 292 292 291 290 289 289 289 289 290 289 289 289 289 289 290 289 289 289 288 288 287 289 291 293 294 293 293 291 290 290 290 290 289 288 288 288 286 283 280 278 275
295 295 295 294 294 293 292 292 291 291 290 290 290 289 289 289 289 288 288 287 286 286 285 285 288 290 291 291 290 289 288 288 287 287 287 286 286 286 282 279 276 275 273
299 298 298 297 296 295 294 293 292 291 290 289 289 288 288 288 288 287 286 284 283 281 280 281 282 283 286 286 286 286 285 284 283 282 285 285 283 283 279 275 272 272 272
300 300 299 299 298 296 295 294 293 291 290 289 288 287 287 286 286 286 285 284 283 281 278 278 279 279 280 280 281 282 282 282 281 279 281 282 279 279 277 273 269 268 269
300 300 299 298 297 296 295 294 292 291 290 289 288 287 286 285 284 284 283 283 283 283 281 280 279 279 279 278 279 279 280 280 279 279 279 278 276 276 276 274 270 268 271
298 297 297 296 295 294 293 292 290 289 288 287 287 286 286 285 284 284 283 283 282 283 283 283 282 281 281 281 280 279 278 279 279 278 278 275 273 273 273 272 271 270 271
297 296 296 294 293 292 291 289 287 286 286 286 285 285 285 285 284 284 284 284 284 283 284 284 284 283 282 282 280 279 279 278 277 276 274 271 270 270 269 270 269 270 270
298 297 296 294 293 292 290 289 288 287 287 287 287 286 286 286 285 285 285 284 284 284 284 285 286 285 283 281 279 278 277 276 274 272 269 268 268 268 266 267 267 267 266
297 296 295 294 294 293 292 291 291 290 290 290 289 288 288 287 286 285 285 284 284 283 283 284 284 284 283 281 279 278 274 272 269 266 264 263 264 264 263 265 265 264 263
297 296 296 295 295 295 294 294 294 293 292 291 290 289 288 287 286 285 284 283 283 282 282 282 282 282 282 281 278 276 273 269 265 262 260 259 260 259 259 262 264 261 260
297 297 297 297 298 298 297 297 296 294 292 291 289 288 287 286 284 283 283 283 283 283 282 282 282 282 282 280 277 275 273 270 266 260 258 259 258 255 255 260 262 259 257
299 299 299 299 300 299 299 298 297 295 294 292 290 288 286 285 284 282 281 281 282 283 283 283 283 283 282 280 278 275 273 271 266 262 260 260 258 255 255 259 262 257 255
300 301 301 301 301 301 300 299 298 297 295 294 292 291 288 286 284 283 281 280 280 281 281 282 282 282 282 281 278 275 272 268 264 263 260 260 256 255 256 259 259 255 254
301 301 302 302 302 302 302 301 300 299 298 296 295 293 291 288 285 283 281 279 278 278 278 279 280 280 279 276 274 271 268 265 262 260 259 259 256 256 256 257 255 253 252
301 301 302 302 303 303 303 302 302 301 300 299 298 296 294 291 287 284 282 281 279 278 277 276 276 275 273 271 268 266 264 260 261 258 256 257 256 257 258 256 252 253 253
Height
5828 5826 5824 5822 5819 5817 5815 5812 5810 5807 5805 5802 5799 5796 5794 5791 5788 5785 5782 5778 5774 5770 5767 5763 5760 5756 5753 5749 5746 5742 5738 5734 5731 5728 5725 5721 5718 5715 5712 5709 5707 5705 5703
5820 5818 5816 5814 5811 5809 5806 5804 5801 5799 5796 5793 5790 5787 5784 5781 5778 5775 5772 5769 5765 5761 5757 5754 5750 5747 5743 5739 5736 5732 5729 5725 5721 5718 5714 5710 5707 5703 5701 5698 5695 5693 5691
5812 5810 5808 5806 5803 5801 5798 5795 5792 5789 5786 5783 5780 5776 5774 5771 5769 5766 5762 5758 5755 5751 5747 5744 5740 5736 5733 5729 5725 5722 5718 5715 5711 5706 5702 5698 5695 5691 5688 5686 5683 5681 5679
5805 5803 5801 5798 5796 5793 5790 5787 5784 5780 5777 5774 5770 5767 5764 5761 5758 5755 5751 5747 5743 5740 5736 5732 5729 5725 5721 5718 5714 5710 5707 5703 5700 5695 5691 5686 5683 5679 5676 5673 5671 5669 5667
5798 5796 5794 5790 5787 5784 5781 5778 5775 5771 5768 5764 5759 5756 5753 5750 5747 5744 5739 5734 5731 5727 5724 5720 5717 5713 5709 5705 5701 5697 5694 5691 5687 5683 5679 5674 5671 5667 5664 5662 5659 5657 5655
5790 5788 5786 5782 5779 5776 5773 5769 5766 5761 5758 5753 5748 5745 5742 5738 5735 5732 5727 5722 5719 5715 5711 5708 5704 5700 5696 5692 5688 5684 5681 5677 5673 5670 5666 5662 5658 5655 5652 5650 5647 5645 5643
5783 5780 5777 5774 5770 5767 5764 5760 5756 5752 5748 5743 5738 5735 5731 5727 5724 5719 5714 5710 5706 5701 5698 5695 5691 5687 5684 5680 5675 5671 5667 5664 5660 5656 5652 5649 5646 5643 5640 5637 5635 5633 5631
5775 5771 5768 5765 5761 5757 5754 5749 5744 5740 5737 5731 5726 5721 5719 5718 5713 5706 5701 5697 5692 5688 5685 5681 5677 5674 5671 5667 5663 5658 5654 5650 5647 5643 5640 5636 5633 5630 5628 5625 5622 5620 5619
5765 5761 5758 5754 5750 5746 5742 5737 5731 5726 5722 5718 5712 5706 5701 5700 5699 5695 5688 5683 5679 5674 5671 5667 5662 5659 5656 5652 5648 5644 5640 5636 5633 5630 5627 5623 5620 5617 5615 5613 5610 5608 5607
5754 5750 5746 5742 5738 5733 5728 5723 5718 5712 5707 5703 5698 5692 5686 5681 5676 5675 5675 5669 5663 5659 5656 5652 5648 5645 5641 5637 5633 5629 5626 5623 5620 5617 5613 5610 5608 5605 5603 5600 5598 5596 5595
5743 5739 5734 5729 5724 5719 5714 5708 5702 5697 5691 5686 5681 5676 5670 5664 5658 5652 5652 5653 5648 5644 5640 5635 5632 5630 5627 5622 5618 5614 5610 5608 5606 5603 5600 5598 5595 5593 5591 5588 5586 5584 5583
5732 5726 5721 5716 5710 5704 5699 5693 5687 5681 5674 5668 5663 5657 5651 5646 5642 5636 5631 5630 5629 5629 5624 5619 5616 5614 5611 5607 5603 5599 5595 5593 5592 5590 5587 5585 5583 5581 5579 5576 5574 5572 5571
5719 5713 5707 5701 5695 5688 5682 5676 5671 5665 5658 5652 5646 5641 5635 5630 5626 5620 5615 5611 5608 5608 5606 5604 5601 5598 5594 5591 5588 5585 5580 5578 5576 5575 5573 5571 5569 5568 5566 5564 5562 5560 5558
5704 5698 5692 5685 5678 5672 5665 5659 5654 5648 5642 5636 5631 5625 5619 5614 5609 5604 5599 5594 5589 5588 5586 5585 5585 5582 5578 5574 5571 5569 5565 5563 5561 5559 5557 5556 5555 5554 5553 5551 5549 5548 5546
5688 5681 5674 5667 5660 5653 5646 5640 5633 5627 5621 5616 5611 5606 5601 5596 5590 5584 5578 5573 5568 5564 5566 5567 5565 5565 5561 5556 5554 5551 5549 5548 5545 5543 5541 5540 5539 5539 5538 5537 5536 5535 5533
5671 5664 5656 5648 5640 5633 5625 5618 5611 5605 5599 5594 5588 5583 5578 5573 5568 5563 5558 5553 5547 5541 5540 5548 5545 5544 5541 5538 5536 5533 5531 5530 5529 5527 5525 5524 5523 5523 5523 5523 5522 5521 5519
5653 5645 5636 5628 5620 5612 5603 5595 5588 5582 5576 5571 5565 5559 5555 5549 5544 5540 5535 5531 5526 5520 5515 5522 5525 5523 5520 5518 5517 5515 5514 5512 5511 5511 5509 5507 5507 5507 5507 5507 5506 5506 5505
5634 5625 5616 5607 5598 5589 5581 5572 5564 5558 5552 5547 5543 5537 5532 5526 5522 5517 5512 5508 5504 5500 5493 5493 5501 5502 5500 5498 5496 5495 5495 5493 5493 5493 5492 5491 5490 5491 5491 5491 5491 5491 5490
5613 5603 5592 5583 5573 5563 5555 5546 5539 5534 5528 5523 5518 5512 5508 5502 5498 5494 5489 5485 5482 5478 5473 5469 5473 5478 5478 5477 5474 5475 5474 5474 5474 5474 5474 5473 5473 5474 5475 5475 5475 5476 5477
5589 5578 5568 5557 5547 5538 5529 5521 5515 5510 5505 5500 5494 5488 5483 5478 5473 5469 5466 5464 5460 5457 5454 5450 5449 5453 5455 5456 5452 5452 5452 5453 5453 5454 5454 5455 5455 5456 5458 5459 5459 5460 5461
5563 5552 5543 5534 5524 5515 5506 5498 5493 5488 5483 5478 5473 5467 5462 5456 5450 5445 5442 5441 5438 5435 5433 5430 5429 5430 5434 5434 5431 5430 5429 5431 5432 5434 5434 5435 5436 5438 5440 5442 5443 5443 5445
5539 5528 5519 5511 5503 5494 5486 5479 5472 5467 5461 5456 5451 5447 5442 5436 5429 5422 5418 5416 5414 5411 5410 5408 5407 5409 5412 5412 5409 5407 5407 5408 5411 5415 5414 5416 5417 5419 5422 5424 5425 5426 5428
5518 5509 5500 5492 5484 5476 5467 5460 5452 5446 5440 5433 5427 5422 5418 5413 5405 5398 5396 5395 5393 5390 5386 5383 5384 5388 5389 5391 5388 5387 5387 5387 5390 5393 5394 5397 5400 5402 5405 5407 5408 5410 5412
5499 5491 5483 5474 5466 5458 5448 5440 5431 5425 5417 5409 5401 5395 5390 5387 5380 5370 5369 5371 5371 5370 5364 5360 5360 5363 5366 5367 5366 5366 5367 5368 5370 5374 5377 5380 5383 5386 5388 5391 5392 5395 5397
5483 5474 5465 5456 5447 5439 5428 5418 5408 5400 5393 5384 5376 5369 5362 5356 5352 5343 5340 5342 5345 5347 5344 5340 5340 5341 5342 5343 5344 5344 5347 5349 5353 5357 5361 5364 5367 5370 5373 5375 5377 5380 5383
5464 5455 5447 5436 5426 5416 5405 5394 5383 5374 5365 5357 5351 5344 5336 5328 5324 5319 5316 5316 5319 5321 5322 5322 5322 5321 5321 5323 5325 5327 5330 5333 5337 5342 5346 5350 5353 5356 5359 5361 5364 5367 5370